Regional Weather Roundup
Issued by NWS

Home | Current Version | Previous Version | Text Only | Print | Product List | Glossary On
Versions: 1 2 3 4 5 6 7 8 9 10 11 12 13 14 15 16 17 18 19 20 21 22 23 24 25 26 27 28 29 30 31 32 33 34 35 36 37 38 39 40 41 42 43 44 45 46 47 48 49 50
000
ASUS43 KDMX 301707
RWRIA

WEATHER ROUNDUP FOR IOWA
NATIONAL WEATHER SERVICE DES MOINES IA
1200 PM CDT WED JUL 30 2014

NOTE: "FAIR" INDICATES FEW OR NO CLOUDS BELOW 12,000 FEET WITH NO
SIGNIFICANT WEATHER AND/OR OBSTRUCTIONS TO VISIBILITY.

* - THESE STATIONS ARE NOT NWS STATIONS...THUS NOT UNDER NWS
QUALITY CONTROL.  THEY ALSO DO NOT REPORT WEATHER SUCH
AS PRECIPITATION OR FOG.

IAZ001>003-012>014-020>022-031>034-043>046-301800-
   NORTHWEST IOWA

CITY           SKY/WX    TMP DP  RH WIND       PRES   REMARKS
CARROLL *      SUNNY     75  55  50 N8        30.15S
CHEROKEE *     PTSUNNY   73  57  56 NW5       30.16S
DENISON *      MOSUNNY   73  55  53 N8G16     30.15S
LE MARS *      MOSUNNY   75  55  50 NE6       30.17S
ORANGE CITY *  SUNNY     75  54  46 N8        30.17S
SHELDON *      MOSUNNY   73  55  53 N10       30.15F
SIOUX CITY     PTSUNNY   78  55  44 VRB3      30.16S
SPENCER          N/A     77  56  48 VRB6      30.16S
STORM LAKE *   SUNNY     73  57  56 NW7       30.17S
$$

IAZ055>058-069>071-079>083-090>094-301800-
   SOUTHWEST IOWA

CITY           SKY/WX    TMP DP  RH WIND       PRES   REMARKS
ATLANTIC *     PTSUNNY   75  57  53 NW8       30.14F
AUDUBON *      SUNNY     79  57  47 NE6       30.17S HX  80
CLARINDA *     MOSUNNY   75  57  53 VRB5      30.16S
COUNCIL BLFS * MOSUNNY   75  57  53 VRB5G14   30.15S
CRESTON *      MOSUNNY   75  55  50 NE8       30.15S
HARLAN  *      PTSUNNY   73  57  56 N8        30.19S
LAMONI           N/A     77  55  46 VRB6      30.13F
RED OAK *      MOSUNNY   77  55  47 N9        30.15S
SHENANDOAH *   PTSUNNY   77  57  50 VRB5      30.16S
$$

IAZ047>049-059>061-072>074-084-301800-
   CENTRAL IOWA

CITY           SKY/WX    TMP DP  RH WIND       PRES   REMARKS
AMES             N/A     75  57  53 N10       30.13S
ANKENY *       MOSUNNY   75  55  50 N9        30.13S
CHARITON *     SUNNY     75  57  53 N7G14     30.13S
DES MOINES       N/A     76  54  46 N7        30.13S
GRINNELL*        N/A     75  59  57 N5        30.12S
KNOXVILLE *    SUNNY     75  57  53 NW9       30.12S
MARSHALLTOWN     N/A     76  58  53 NW9       30.11S
PELLA *          N/A     77  57  50 N7        30.13S
PERRY *          N/A     75  57  53 N8        30.15S
$$

IAZ004>006-015-016-023>025-035-036-301800-
   NORTH CENTRAL IOWA

CITY           SKY/WX    TMP DP  RH WIND       PRES   REMARKS
ALGONA *       SUNNY     73  59  60 N8        30.14S
CLARION *      SUNNY     75  59  57 N8        30.13S
ESTHERVILLE      N/A     74  58  57 N10       30.15S
FORT DODGE *     N/A     75  57  53 N6        30.15S
MASON CITY       N/A     76  59  55 VRB7      30.14S
FOREST CITY *  MOSUNNY   73  59  60 N10       30.13S
IOWA FALLS *     N/A     75  55  50 NW9       30.13S
$$

IAZ007>011-017>019-026>030-037>042-050>054-066-301800-
   NORTHEAST IOWA

CITY           SKY/WX    TMP DP  RH WIND       PRES   REMARKS
CEDAR RAPIDS     N/A     75  61  61 MISG      30.09S
CHARLES CITY * SUNNY     75  59  57 W8G14     30.12S
CLINTON *        N/A     73  61  64 N3        30.11S
DECORAH *      SUNNY     73  59  60 VRB7      30.09S
DUBUQUE          N/A     73  60  63 MISG      30.09S
MONTICELLO *   MOSUNNY   75  63  64 VRB6      30.08F
OELWEIN *      SUNNY     73  61  64 N6        30.10F
WATERLOO         N/A     77  58  51 N9        30.09S
$$

IAZ064-065-067-068-078-301800-
   EAST CENTRAL IOWA

CITY           SKY/WX    TMP DP  RH WIND       PRES   REMARKS
DAVENPORT        N/A     75  61  61 W3        30.09S
IOWA CITY        N/A     75  61  61 NW6       30.11S
MT. PLEASANT *   N/A     77  55  47 W5        30.10S
MUSCATINE *    SUNNY     77  59  53 W8        30.09S
QUAD CITIES      N/A     78  59  51 N7        30.08S
$$

IAZ062-063-075>077-085>089-095>099-301800-
   SOUTHEAST IOWA

CITY           SKY/WX    TMP DP  RH WIND       PRES   REMARKS
BURLINGTON       N/A     77  59  53 NW8       30.09F
FAIRFIELD *    SUNNY     75  61  60 NW8       30.11S
FORT MADISON * SUNNY     79  61  53 NW7       30.11S HX  80
KEOKUK *       MOSUNNY   77  59  53 W8        30.10S
OSKALOOSA *      N/A     75  61  60 N7        30.12S
CENTERVILLE *  SUNNY     75  57  53 NW3       30.14S
OTTUMWA          N/A     75  59  57 NW9       30.10S
WASHINGTON *   SUNNY     75  61  60 NW8G15    30.10F
$$

ABBREVIATIONS USED IN REMARKS
   TC - TEMPERATURES IN CELSIUS
  WCI - WIND CHILL INDEX
   HX - HEAT INDEX
  VSB - VISIBILITY
$$




USA.gov is the U.S. government's official web portal to all federal, state and local government web resources and services.